Location: Abundant Grace Fellowship
(35.0349°N, 90.0924°W)
Time: 23:03:12
(UTC+00:00)

Cosmos 1805 Rocket - Pass Details

Date: 18 January 2026
Orbit: 598 x 623 km, 82.5° (Epoch: 13 February)

Event Time Altitude Azimuth Distance (km) Brightness Sun altitude
Rises 11:34:29 0° 205° (SSW) 2,888 6.9 -18.8°
Reaches altitude 10° 11:36:51 10° 214° (SW) 1,986 5.9 -18.3°
Maximum altitude 11:40:54 35° 281° (W) 1,002 4.1 -17.5°
Drops below altitude 10° 11:44:58 10° 348° (NNW) 1,992 5.9 -16.7°
Sets 11:47:21 0° 357° (N) 2,899 6.8 -16.2°
